Wind_Speed
15 13 12 12 12 13 14 17 19 21 22 25 28 29 30 30 31 33 34 36 38 40 43 44 45 46 47 48 50 52 53 55 56 56 56 57 58 60 61 62 63 63 62 62
11 12 12 13 14 15 16 18 21 23 25 27 30 31 31 33 35 36 38 41 43 45 48 50 51 51 52 54 57 59 62 63 64 65 65 64 64 65 66 67 67 68 67 67
11 11 12 14 16 18 19 21 23 24 25 29 32 33 35 37 40 42 45 48 51 54 56 58 59 61 62 63 64 65 67 69 71 71 71 71 70 70 72 72 72 73 73 73
11 12 13 15 17 19 21 23 26 28 29 31 35 38 40 44 46 50 53 56 59 62 66 68 69 70 70 70 70 70 70 72 74 76 78 78 77 76 77 77 77 77 78 78
12 13 15 16 17 19 22 25 28 31 33 34 38 43 46 49 52 55 58 61 65 68 72 75 77 77 76 75 74 74 74 76 78 81 82 83 82 81 80 80 80 79 79 79
13 14 15 16 18 21 24 27 31 35 38 40 44 49 53 55 59 61 64 68 72 74 76 78 79 80 80 79 79 79 80 81 82 82 82 81 79 77 75 75 76 76 76 76
13 14 15 17 20 23 27 30 35 40 43 46 50 55 59 62 65 69 72 75 76 77 77 78 79 80 81 82 83 83 82 80 79 76 71 67 63 61 60 61 63 65 66 68
15 16 17 20 22 26 30 34 39 43 47 51 55 60 64 68 72 75 77 77 76 76 77 78 80 82 84 84 84 83 79 73 66 59 52 48 47 47 49 52 55 58 61 63
17 19 20 23 26 30 34 39 43 48 53 58 61 64 69 73 77 77 75 73 72 73 75 78 81 83 83 82 79 75 67 58 50 42 38 38 40 42 44 46 47 49 52 55
20 22 25 28 30 34 39 44 49 54 59 62 64 69 73 77 74 71 68 67 69 71 73 73 72 70 66 63 57 51 46 41 36 33 33 35 37 39 39 39 41 43 44 44
23 26 30 32 34 38 42 47 52 57 60 65 69 73 75 72 68 65 64 66 66 65 61 57 53 53 52 47 41 36 32 30 29 30 31 33 35 36 37 39 41 42 41 39
25 28 32 35 38 41 45 50 55 59 62 66 71 74 72 67 63 62 62 61 59 55 52 51 50 48 44 39 33 28 26 26 26 28 29 32 34 35 36 37 38 38 35 32
28 31 34 37 41 45 48 53 57 61 65 68 71 68 69 64 61 59 56 53 51 49 47 47 46 43 38 34 30 27 25 26 27 28 30 32 34 34 34 34 34 33 30 25
29 31 34 38 43 48 51 55 59 64 68 71 72 72 70 66 61 55 50 48 48 46 45 44 42 40 36 33 31 29 28 29 30 31 32 33 34 34 32 31 30 28 25 21
30 33 35 40 46 50 54 57 62 67 71 73 73 70 67 63 56 52 49 48 45 45 44 43 42 40 38 35 33 33 32 33 33 34 35 34 34 34 32 29 27 25 23 19
32 35 38 42 48 53 56 61 66 69 72 73 73 68 65 57 51 48 46 44 43 43 43 43 43 42 40 38 37 36 36 37 37 38 38 37 35 34 32 30 26 23 21 18
33 37 42 46 51 57 59 64 68 71 74 75 72 68 61 53 49 47 45 43 41 41 43 44 45 45 44 43 42 41 40 40 40 41 41 40 38 36 33 31 27 24 21 19
35 40 45 50 55 58 62 65 69 72 75 73 68 61 54 50 47 46 44 42 40 42 44 46 48 48 48 48 48 47 46 45 45 44 43 42 40 38 35 33 30 26 23 21
37 42 48 53 56 60 63 67 70 74 74 72 65 57 49 46 44 43 43 42 42 44 47 50 51 52 53 53 52 51 51 50 48 47 45 43 41 39 36 34 32 30 27 25
40 45 50 54 58 61 64 67 71 76 73 69 60 52 47 45 42 42 43 43 44 46 50 53 55 56 56 56 55 54 53 52 51 49 46 44 41 39 36 34 33 32 31 29
44 49 52 56 59 61 66 68 72 73 74 68 56 49 45 44 43 44 45 46 48 50 53 55 58 59 59 58 58 58 57 56 54 52 49 47 44 41 38 35 33 33 32 32
47 51 54 58 60 63 66 68 71 73 72 61 50 45 43 43 44 45 47 49 51 54 56 58 59 60 61 62 61 60 58 56 55 53 51 49 46 44 42 39 36 35 34 34
49 52 55 57 60 63 66 69 72 74 67 56 45 42 42 43 45 47 50 53 55 57 58 60 61 61 61 60 57 55 53 51 49 47 46 46 45 44 44 43 41 39 38 37
51 54 56 58 60 64 67 70 72 71 63 51 43 41 42 44 47 50 53 56 57 58 60 61 59 55 52 51 50 49 49 48 47 45 43 41 39 39 39 41 43 43 43 42
53 56 57 58 61 64 66 69 72 69 59 49 43 42 43 47 50 53 56 57 59 60 59 55 50 47 47 48 49 49 50 50 49 47 45 42 39 36 34 34 35 39 43 46
54 56 57 58 61 63 66 70 72 67 57 48 43 43 46 49 53 56 57 58 59 57 50 45 44 45 46 48 49 50 51 51 50 48 46 43 40 37 34 32 31 31 33 37
Wind_Direction
36 34 31 29 24 14 3 353 347 344 337 330 328 327 326 322 317 313 310 308 305 303 301 299 296 293 289 286 283 281 279 278 277 276 274 272 270 269 269 269 268 267 266 266
33 28 21 16 11 5 356 347 342 339 335 331 330 329 326 321 318 315 312 309 306 304 302 299 296 293 289 285 283 282 281 280 279 277 275 273 270 268 266 266 267 267 267 267
25 19 12 6 359 352 346 343 340 340 338 333 330 328 325 322 319 316 313 311 308 306 304 301 298 295 291 288 286 284 283 282 281 280 277 274 272 271 270 268 267 267 266 266
13 7 2 356 350 347 344 344 343 341 339 336 330 326 324 321 319 317 314 312 309 306 304 302 299 296 293 290 288 286 284 283 283 283 283 281 279 276 274 272 270 268 267 266
4 358 353 349 350 348 346 344 342 338 335 332 327 323 319 318 317 314 312 309 307 304 302 299 298 296 293 291 288 286 285 284 283 284 284 284 284 282 280 278 275 272 269 267
347 346 346 346 347 346 343 340 336 332 329 327 323 319 316 316 314 312 309 308 305 302 300 298 296 294 292 290 288 286 285 285 285 286 286 286 286 285 283 280 278 275 272 268
335 337 340 341 341 340 338 336 332 330 328 325 322 318 316 315 313 310 309 307 304 302 299 297 294 292 290 289 288 288 288 288 290 291 291 290 288 285 283 280 277 275 272 268
335 336 337 336 334 333 332 331 331 329 326 323 321 319 317 314 312 311 310 307 304 301 298 295 294 293 293 292 291 290 291 292 293 293 291 290 289 288 287 285 282 278 272 267
333 333 332 332 331 330 329 329 329 328 326 325 323 319 316 315 314 312 309 306 302 299 296 296 296 296 297 296 295 294 293 293 293 292 291 293 295 297 298 298 297 293 287 277
331 331 331 330 328 328 329 330 331 331 328 325 322 318 317 316 314 311 306 302 299 298 299 301 303 305 306 305 303 299 297 295 293 294 295 298 302 303 305 305 304 302 298 290
329 331 330 329 329 329 330 332 332 330 327 324 321 319 320 317 315 310 307 305 306 308 310 314 317 318 318 316 311 305 300 298 296 297 299 304 306 306 305 308 309 308 301 292
326 329 330 330 329 330 331 332 331 329 326 324 321 321 322 319 316 312 311 313 314 317 320 324 325 325 325 323 319 314 310 306 304 304 306 309 310 309 308 310 314 314 308 297
327 331 331 329 329 331 333 332 330 327 325 325 324 325 324 320 317 316 317 318 320 324 327 328 329 330 331 330 327 324 321 318 316 315 314 314 313 311 309 312 316 319 315 304
328 330 331 330 330 331 333 332 329 327 327 327 329 327 328 325 324 323 325 327 330 331 331 332 335 337 337 336 334 332 329 327 325 322 319 317 315 312 309 312 316 319 319 308
328 328 330 330 330 332 333 332 330 329 330 330 331 330 330 329 329 331 333 333 333 333 333 335 338 340 340 337 335 332 330 328 326 323 320 317 315 311 308 309 312 315 317 311
326 327 330 331 331 332 334 333 332 331 331 332 332 333 332 333 333 334 334 333 333 334 336 338 338 338 338 336 333 329 326 324 321 319 318 316 314 310 306 303 304 306 307 304
327 328 331 332 332 334 335 335 332 331 333 335 335 336 336 337 336 335 335 334 333 335 337 338 337 336 335 333 330 327 324 321 318 316 315 313 312 309 304 298 295 294 292 292
329 331 333 334 335 335 337 334 333 333 335 337 337 338 339 336 335 334 334 332 332 334 335 336 335 334 333 331 328 325 323 320 318 316 313 312 310 308 304 297 290 284 280 277
332 334 335 335 335 336 337 336 334 334 336 338 338 340 340 337 336 334 334 333 332 332 332 332 332 331 330 328 325 323 321 318 316 314 312 310 307 305 302 297 289 281 273 268
334 337 336 336 335 336 337 335 334 336 337 339 339 341 341 340 339 337 335 333 332 331 330 329 328 327 326 325 323 320 318 316 314 312 309 307 304 301 298 295 289 280 272 265
337 339 338 336 336 336 336 335 335 336 338 340 340 341 342 340 339 337 335 333 332 330 329 327 326 325 324 322 321 318 316 314 311 308 306 303 300 297 294 290 286 280 273 265
338 338 337 337 336 335 335 334 336 337 339 339 340 341 342 340 339 337 335 333 331 329 328 327 326 325 324 322 321 319 317 315 312 308 304 300 295 291 287 284 280 277 272 266
338 338 336 335 334 334 334 335 336 338 339 339 339 340 340 340 339 337 335 332 331 330 329 328 328 327 327 327 328 328 328 326 323 319 313 306 299 291 285 279 274 270 268 265
338 338 336 334 332 333 335 335 337 340 339 337 336 337 338 339 338 336 334 333 332 331 331 331 332 334 337 340 342 343 342 341 338 335 331 325 317 307 295 285 276 270 265 262
337 337 336 334 333 333 333 334 337 340 338 334 333 335 336 337 337 336 335 335 334 334 335 337 342 347 351 353 352 351 350 348 346 344 342 338 333 326 317 305 292 280 271 264
336 335 334 333 332 332 332 334 338 339 337 333 331 333 335 336 336 336 337 337 337 338 342 349 354 357 356 356 355 355 354 352 351 349 346 344 342 338 332 325 315 302 289 277
Height
5838 5838 5836 5834 5833 5831 5828 5826 5823 5820 5817 5813 5809 5806 5802 5797 5792 5787 5782 5777 5771 5766 5760 5753 5747 5741 5735 5730 5725 5720 5715 5711 5706 5702 5698 5695 5691 5688 5685 5683 5681 5680 5679 5679
5840 5837 5835 5833 5831 5829 5826 5823 5820 5817 5813 5808 5804 5800 5796 5791 5785 5780 5774 5768 5762 5756 5749 5742 5735 5728 5721 5715 5708 5702 5697 5691 5687 5682 5679 5675 5672 5669 5667 5665 5663 5661 5660 5660
5839 5837 5834 5832 5829 5827 5824 5821 5817 5814 5810 5804 5800 5795 5790 5784 5778 5771 5765 5757 5750 5743 5735 5727 5719 5711 5703 5696 5689 5682 5676 5669 5664 5659 5655 5652 5650 5647 5644 5643 5642 5641 5640 5640
5838 5836 5834 5831 5828 5825 5822 5818 5814 5810 5806 5800 5795 5789 5783 5776 5768 5761 5753 5744 5735 5726 5717 5707 5698 5689 5680 5673 5666 5659 5653 5646 5639 5633 5628 5624 5621 5620 5618 5617 5617 5617 5616 5616
5836 5834 5832 5829 5826 5823 5819 5815 5811 5806 5800 5795 5788 5781 5774 5766 5758 5749 5740 5730 5720 5709 5698 5686 5675 5665 5656 5648 5642 5636 5629 5622 5615 5608 5602 5596 5593 5590 5588 5586 5587 5589 5590 5589
5835 5832 5829 5826 5822 5819 5815 5811 5807 5802 5796 5790 5782 5773 5763 5755 5745 5735 5724 5713 5701 5689 5677 5665 5653 5643 5633 5625 5618 5611 5605 5598 5591 5584 5577 5572 5568 5564 5561 5558 5556 5557 5559 5560
5833 5830 5826 5823 5819 5815 5812 5808 5803 5796 5789 5782 5773 5762 5752 5740 5728 5717 5705 5693 5680 5667 5654 5643 5632 5621 5612 5603 5595 5588 5581 5575 5569 5563 5556 5551 5546 5542 5538 5535 5532 5530 5531 5531
5829 5827 5823 5819 5815 5811 5806 5802 5797 5790 5782 5774 5763 5750 5739 5725 5711 5698 5685 5672 5658 5646 5634 5622 5610 5599 5589 5580 5571 5565 5560 5555 5550 5545 5540 5535 5530 5526 5522 5516 5512 5508 5507 5506
5826 5823 5819 5815 5811 5806 5801 5795 5789 5781 5771 5761 5750 5738 5724 5709 5695 5681 5667 5654 5641 5629 5617 5605 5593 5580 5568 5558 5550 5543 5540 5537 5534 5530 5527 5522 5517 5512 5506 5500 5493 5488 5483 5481
5823 5820 5816 5811 5807 5801 5795 5788 5780 5769 5756 5746 5736 5722 5709 5692 5681 5667 5653 5639 5627 5615 5603 5591 5578 5564 5552 5540 5532 5526 5523 5522 5520 5518 5515 5511 5505 5500 5493 5487 5481 5474 5467 5461
5819 5816 5811 5807 5801 5795 5788 5780 5769 5759 5745 5731 5718 5708 5693 5677 5664 5650 5635 5621 5610 5599 5588 5577 5565 5553 5541 5530 5521 5516 5513 5512 5510 5508 5504 5500 5494 5488 5482 5476 5469 5461 5453 5447
5814 5811 5806 5801 5795 5788 5780 5771 5761 5750 5737 5722 5706 5694 5675 5661 5646 5632 5620 5609 5597 5587 5576 5566 5555 5545 5534 5524 5517 5511 5508 5505 5502 5499 5495 5490 5485 5479 5473 5466 5459 5450 5442 5436
5810 5806 5801 5795 5789 5781 5772 5761 5750 5739 5726 5712 5697 5685 5663 5650 5638 5626 5614 5603 5591 5580 5570 5560 5550 5539 5529 5521 5514 5508 5504 5500 5496 5491 5487 5481 5476 5470 5464 5458 5450 5442 5435 5429
5805 5800 5796 5789 5780 5772 5764 5753 5741 5728 5714 5699 5684 5669 5655 5640 5627 5616 5605 5593 5582 5572 5563 5554 5544 5535 5526 5518 5511 5505 5500 5495 5489 5484 5479 5474 5468 5462 5456 5450 5443 5436 5430 5425
5800 5795 5789 5782 5773 5764 5755 5745 5732 5717 5702 5687 5671 5654 5640 5626 5614 5603 5593 5584 5575 5566 5557 5548 5539 5530 5522 5515 5508 5501 5495 5489 5483 5478 5472 5466 5460 5454 5448 5442 5437 5431 5425 5421
5795 5789 5783 5776 5766 5756 5746 5734 5720 5706 5691 5676 5660 5647 5632 5618 5607 5598 5589 5579 5570 5561 5552 5543 5534 5526 5518 5510 5503 5496 5490 5483 5476 5470 5464 5458 5452 5446 5440 5435 5430 5425 5421 5417
5789 5783 5776 5769 5758 5747 5737 5724 5710 5695 5680 5665 5650 5636 5620 5608 5599 5590 5582 5573 5564 5555 5546 5537 5529 5520 5512 5504 5496 5489 5482 5475 5468 5461 5454 5448 5442 5436 5431 5426 5422 5418 5415 5412
5783 5776 5769 5760 5750 5739 5731 5715 5700 5684 5669 5653 5638 5624 5611 5600 5592 5583 5576 5567 5559 5550 5541 5532 5523 5514 5505 5497 5488 5480 5472 5465 5457 5450 5443 5437 5431 5425 5420 5416 5412 5410 5407 5405
5777 5770 5761 5751 5741 5730 5719 5705 5689 5675 5662 5646 5631 5619 5609 5599 5589 5579 5571 5561 5552 5543 5535 5525 5516 5506 5497 5488 5479 5470 5462 5453 5445 5438 5431 5424 5419 5414 5409 5405 5401 5399 5397 5396
5770 5763 5754 5742 5731 5720 5711 5696 5680 5666 5654 5638 5624 5612 5603 5593 5585 5577 5566 5556 5547 5537 5528 5518 5508 5498 5488 5478 5468 5458 5449 5441 5432 5424 5417 5411 5406 5401 5397 5393 5389 5387 5386 5385
5763 5755 5745 5733 5722 5712 5700 5686 5672 5660 5648 5631 5617 5606 5596 5586 5578 5569 5560 5551 5541 5531 5521 5511 5499 5488 5477 5466 5456 5446 5436 5427 5418 5409 5402 5396 5391 5386 5383 5379 5377 5374 5373 5372
5755 5746 5736 5725 5713 5705 5690 5677 5664 5651 5634 5621 5610 5599 5590 5581 5573 5564 5555 5545 5535 5525 5514 5502 5490 5477 5465 5454 5443 5432 5421 5411 5401 5393 5385 5379 5374 5370 5366 5364 5362 5360 5358 5358
5748 5739 5728 5718 5708 5695 5682 5669 5654 5640 5627 5614 5604 5595 5586 5578 5569 5559 5550 5540 5529 5517 5505 5492 5480 5467 5454 5441 5430 5419 5407 5397 5387 5377 5369 5361 5355 5351 5348 5346 5344 5343 5342 5342
5741 5731 5721 5709 5698 5685 5673 5659 5646 5632 5619 5608 5599 5590 5582 5573 5564 5554 5544 5533 5521 5509 5496 5483 5470 5458 5446 5434 5422 5411 5399 5388 5377 5367 5357 5349 5341 5335 5330 5327 5325 5325 5324 5324
5734 5723 5713 5702 5690 5678 5666 5653 5639 5626 5613 5603 5594 5586 5577 5568 5559 5549 5538 5526 5513 5501 5487 5475 5463 5452 5441 5430 5419 5407 5395 5383 5372 5361 5350 5341 5332 5324 5318 5313 5309 5307 5306 5306
5726 5716 5706 5695 5684 5673 5661 5646 5633 5620 5608 5598 5589 5581 5572 5563 5553 5542 5531 5519 5506 5493 5481 5470 5460 5450 5440 5429 5417 5405 5393 5381 5369 5357 5346 5336 5326 5318 5310 5303 5298 5293 5290 5289